| time (UTC) | temp F | wind direction | speed MPH | gust MPH | rain 1hr in | rain 24hr in | rain mn in | humidity % | barometer mb |
| 20260905185447 | 77 | 81 | 1.0 | 1.0 | 0.00 | 0.00 | 0.00 | 90 | 1015.9 |
| 20260905184945 | 77 | 358 | 0.0 | 0.0 | 0.00 | 0.00 | 0.00 | 91 | 1015.8 |
| 20260905184440 | 76 | 70 | 0.0 | 1.0 | 0.00 | 0.00 | 0.00 | 91 | 1015.9 |
| 20260905183939 | 76 | 354 | 3.0 | 3.0 | 0.00 | 0.00 | 0.00 | 92 | 1016.0 |
| 20260905183433 | 77 | 43 | 4.0 | 7.0 | 0.00 | 0.00 | 0.00 | 92 | 1016.0 |
| 20260905182929 | 77 | 71 | 1.0 | 1.0 | 0.00 | 0.00 | 0.00 | 92 | 1016.0 |
| 20260905182427 | 76 | 79 | 2.0 | 3.0 | 0.00 | 0.00 | 0.00 | 92 | 1016.0 |
| 20260905181923 | 76 | 4 | 4.0 | 6.0 | 0.00 | 0.00 | 0.00 | 92 | 1015.8 |
| 20260905181418 | 76 | 291 | 1.0 | 2.0 | 0.00 | 0.00 | 0.00 | 92 | 1015.9 |
| 20260905180917 | 77 | 77 | 1.0 | 1.0 | 0.00 | 0.00 | 0.00 | 91 | 1015.9 |
| 20260905180412 | 77 | 22 | 2.0 | 2.0 | 0.00 | 0.00 | 0.00 | 91 | 1015.7 |
| 20260905175907 | 77 | 46 | 0.0 | 1.0 | 0.00 | 0.00 | 0.00 | 92 | 1015.9 |
| 20260905175406 | 76 | 117 | 0.0 | 0.0 | 0.00 | 0.00 | 0.00 | 92 | 1015.7 |
| 20260905174901 | 76 | 280 | 1.0 | 2.0 | 0.00 | 0.00 | 0.00 | 93 | 1015.8 |
| 20260905174357 | 75 | 298 | 0.0 | 1.0 | 0.00 | 0.00 | 0.00 | 94 | 1015.8 |
| 20260905173852 | 75 | 346 | 4.0 | 5.0 | 0.00 | 0.00 | 0.00 | 93 | 1015.6 |
| 20260905173349 | 75 | 36 | 0.0 | 1.0 | 0.00 | 0.00 | 0.00 | 94 | 1015.9 |
| 20260905172844 | 75 | 93 | 2.0 | 2.0 | 0.00 | 0.00 | 0.00 | 94 | 1015.8 |
| 20260905172341 | 75 | 80 | 1.0 | 1.0 | 0.00 | 0.00 | 0.00 | 94 | 1015.9 |
| 20260905171838 | 75 | 110 | 1.0 | 1.0 | 0.00 | 0.00 | 0.00 | 94 | 1016.0 |
| 20260905171334 | 75 | 88 | 1.0 | 1.0 | 0.00 | 0.00 | 0.00 | 94 | 1015.7 |
| 20260905170830 | 75 | 354 | 3.0 | 5.0 | 0.00 | 0.00 | 0.00 | 94 | 1016.0 |
| 20260905170326 | 75 | 193 | 1.0 | 1.0 | 0.00 | 0.00 | 0.00 | 95 | 1016.2 |
| 20260905165825 | 75 | 353 | 1.0 | 2.0 | 0.00 | 0.00 | 0.00 | 95 | 1016.2 |
| 20260905165321 | 75 | 65 | 2.0 | 3.0 | 0.00 | 0.00 | 0.00 | 95 | 1015.9 |
| 20260905164820 | 74 | 336 | 3.0 | 5.0 | 0.00 | 0.00 | 0.00 | 95 | 1016.2 |
| 20260905164315 | 74 | 106 | 0.0 | 1.0 | 0.00 | 0.00 | 0.00 | 96 | 1016.3 |
| 20260905163811 | 75 | 88 | 1.0 | 1.0 | 0.00 | 0.00 | 0.00 | 95 | 1016.1 |
| 20260905163307 | 75 | 97 | 3.0 | 6.0 | 0.00 | 0.00 | 0.00 | 95 | 1016.2 |
| 20260905162803 | 75 | 351 | 1.0 | 2.0 | 0.00 | 0.00 | 0.00 | 95 | 1015.9 |
| 20260905162305 | 75 | 296 | 1.0 | 2.0 | 0.00 | 0.00 | 0.00 | 95 | 1015.9 |
| 20260905161757 | 75 | 99 | 3.0 | 5.0 | 0.00 | 0.00 | 0.00 | 95 | 1015.9 |
| 20260905161256 | 75 | 68 | 2.0 | 3.0 | 0.00 | 0.00 | 0.00 | 95 | 1016.1 |
| 20260905160755 | 75 | 19 | 1.0 | 2.0 | 0.00 | 0.00 | 0.00 | 95 | 1016.0 |
| 20260905160249 | 75 | 79 | 4.0 | 6.0 | 0.00 | 0.00 | 0.00 | 95 | 1015.9 |
| 20260905155744 | 75 | 107 | 0.0 | 0.0 | 0.00 | 0.00 | 0.00 | 95 | 1016.1 |
| 20260905155243 | 75 | 88 | 3.0 | 3.0 | 0.00 | 0.00 | 0.00 | 95 | 1015.8 |
| 20260905154737 | 75 | 73 | 1.0 | 2.0 | 0.00 | 0.00 | 0.00 | 95 | 1016.0 |
| 20260905154233 | 75 | 124 | 2.0 | 3.0 | 0.00 | 0.00 | 0.00 | 96 | 1015.8 |
| 20260905153728 | 74 | 91 | 1.0 | 2.0 | 0.00 | 0.00 | 0.00 | 96 | 1015.8 |
| 20260905153224 | 75 | 72 | 3.0 | 5.0 | 0.00 | 0.00 | 0.00 | 95 | 1015.7 |
| 20260905152719 | 75 | 321 | 2.0 | 2.0 | 0.00 | 0.00 | 0.00 | 95 | 1015.7 |
| 20260905152213 | 75 | 347 | 2.0 | 3.0 | 0.00 | 0.00 | 0.00 | 96 | 1015.6 |
| 20260905151713 | 75 | 105 | 3.0 | 6.0 | 0.00 | 0.00 | 0.00 | 96 | 1015.6 |
| 20260905151209 | 75 | 90 | 1.0 | 2.0 | 0.00 | 0.00 | 0.00 | 96 | 1015.3 |
| 20260905150704 | 75 | 14 | 2.0 | 2.0 | 0.00 | 0.00 | 0.00 | 96 | 1015.2 |
| 20260905150203 | 75 | 72 | 0.0 | 1.0 | 0.00 | 0.00 | 0.00 | 96 | 1015.3 |
| 20260905145700 | 75 | 73 | 2.0 | 5.0 | 0.00 | 0.00 | 0.00 | 95 | 1015.4 |
| 20260905145155 | 76 | 11 | 0.0 | 1.0 | 0.00 | 0.00 | 0.00 | 95 | 1015.4 |
| 20260905144655 | 76 | 88 | 2.0 | 2.0 | 0.00 | 0.00 | 0.00 | 94 | 1015.3 |
| 20260905144155 | 77 | 55 | 2.0 | 2.0 | 0.00 | 0.00 | 0.00 | 94 | 1015.3 |
| 20260905143654 | 77 | 131 | 0.0 | 1.0 | 0.00 | 0.00 | 0.00 | 95 | 1015.1 |
| 20260905143149 | 75 | 45 | 5.0 | 8.0 | 0.00 | 0.00 | 0.00 | 98 | 1015.3 |
| 20260905142647 | 74 | 122 | 0.0 | 1.0 | 0.00 | 0.00 | 0.00 | 99 | 1015.3 |
| 20260905142147 | 73 | 40 | 1.0 | 2.0 | 0.00 | 0.00 | 0.00 | 99 | 1015.3 |
| 20260905141642 | 73 | 53 | 1.0 | 1.0 | 0.00 | 0.00 | 0.00 | 99 | 1015.3 |
| 20260905141139 | 72 | 84 | 0.0 | 1.0 | 0.00 | 0.00 | 0.00 | 99 | 1015.3 |
| 20260905140634 | 72 | 254 | 2.0 | 2.0 | 0.00 | 0.00 | 0.00 | 99 | 1015.0 |
| 20260905140133 | 72 | 15 | 3.0 | 3.0 | 0.00 | 0.00 | 0.00 | 99 | 1015.0 |
| 20260905135629 | 72 | 64 | 1.0 | 2.0 | 0.00 | 0.00 | 0.00 | 99 | 1015.2 |
| 20260905135124 | 72 | 56 | 0.0 | 2.0 | 0.00 | 0.00 | 0.00 | 99 | 1015.1 |
| 20260905134618 | 72 | 330 | 2.0 | 3.0 | 0.00 | 0.00 | 0.00 | 99 | 1015.0 |
| 20260905134117 | 72 | 335 | 0.0 | 1.0 | 0.00 | 0.00 | 0.00 | 99 | 1014.8 |
| 20260905133613 | 72 | 69 | 1.0 | 2.0 | 0.00 | 0.00 | 0.00 | 99 | 1015.0 |
| 20260905133113 | 72 | 354 | 0.0 | 1.0 | 0.00 | 0.00 | 0.00 | 99 | 1015.1 |
| 20260905132612 | 72 | 8 | 2.0 | 2.0 | 0.00 | 0.00 | 0.00 | 99 | 1015.2 |
| 20260905132107 | 72 | 91 | 0.0 | 0.0 | 0.00 | 0.00 | 0.00 | 99 | 1015.4 |
| 20260905131603 | 72 | 70 | 1.0 | 1.0 | 0.00 | 0.00 | 0.00 | 99 | 1015.5 |
| 20260905131057 | 72 | 24 | 2.0 | 2.0 | 0.00 | 0.00 | 0.00 | 99 | 1015.2 |
| 20260905130556 | 72 | 43 | 1.0 | 1.0 | 0.00 | 0.00 | 0.00 | 99 | 1014.9 |
| 20260905130052 | 72 | 357 | 2.0 | 2.0 | 0.00 | 0.00 | 0.00 | 99 | 1014.8 |
| 20260905125551 | 72 | 47 | 1.0 | 2.0 | 0.00 | 0.00 | 0.00 | 99 | 1014.6 |
| 20260905125047 | 72 | 59 | 1.0 | 1.0 | 0.00 | 0.00 | 0.00 | 99 | 1014.7 |
| 20260905124543 | 71 | 62 | 1.0 | 1.0 | 0.00 | 0.00 | 0.00 | 99 | 1014.9 |
| 20260905124039 | 71 | 64 | 0.0 | 0.0 | 0.00 | 0.00 | 0.00 | 99 | 1014.7 |
| 20260905123534 | 71 | 343 | 1.0 | 1.0 | 0.00 | 0.00 | 0.00 | 99 | 1014.6 |
| 20260905123031 | 71 | 40 | 1.0 | 1.0 | 0.00 | 0.00 | 0.00 | 99 | 1014.5 |
| 20260905122530 | 71 | 89 | 1.0 | 1.0 | 0.00 | 0.00 | 0.00 | 99 | 1014.5 |
| 20260905122025 | 71 | 335 | 2.0 | 2.0 | 0.00 | 0.00 | 0.00 | 99 | 1014.4 |
| 20260905121521 | 71 | 340 | 3.0 | 5.0 | 0.00 | 0.00 | 0.00 | 99 | 1014.3 |
| 20260905121021 | 71 | 8 | 0.0 | 1.0 | 0.00 | 0.00 | 0.00 | 99 | 1014.2 |
| 20260905120515 | 71 | 336 | 1.0 | 2.0 | 0.00 | 0.00 | 0.00 | 99 | 1014.1 |
| 20260905120010 | 71 | 343 | 1.0 | 2.0 | 0.00 | 0.00 | 0.00 | 99 | 1014.1 |
| 20260905115509 | 71 | 56 | 1.0 | 2.0 | 0.00 | 0.00 | 0.00 | 99 | 1014.1 |
| 20260905115004 | 71 | 330 | 2.0 | 2.0 | 0.00 | 0.00 | 0.00 | 99 | 1013.9 |
| 20260905114503 | 71 | 74 | 0.0 | 0.0 | 0.00 | 0.00 | 0.00 | 99 | 1014.0 |
| 20260905114003 | 71 | 39 | 1.0 | 1.0 | 0.00 | 0.00 | 0.00 | 99 | 1013.6 |
| 20260905113458 | 71 | 338 | 3.0 | 3.0 | 0.00 | 0.00 | 0.00 | 99 | 1013.7 |
| 20260905112953 | 71 | 75 | 2.0 | 3.0 | 0.00 | 0.00 | 0.00 | 99 | 1013.7 |
| 20260905112448 | 71 | 101 | 1.0 | 1.0 | 0.00 | 0.00 | 0.00 | 99 | 1013.7 |
| 20260905111944 | 71 | 70 | 2.0 | 3.0 | 0.00 | 0.00 | 0.00 | 99 | 1013.5 |
| 20260905111444 | 71 | 39 | 1.0 | 1.0 | 0.00 | 0.00 | 0.00 | 99 | 1013.6 |
| 20260905110943 | 71 | 73 | 2.0 | 2.0 | 0.00 | 0.00 | 0.00 | 99 | 1013.5 |
| 20260905110442 | 71 | 42 | 5.0 | 6.0 | 0.00 | 0.00 | 0.00 | 99 | 1013.5 |
| 20260905105937 | 71 | 86 | 1.0 | 1.0 | 0.00 | 0.00 | 0.00 | 99 | 1013.4 |
| 20260905105432 | 71 | 28 | 0.0 | 1.0 | 0.00 | 0.00 | 0.00 | 99 | 1013.4 |
| 20260905104931 | 71 | 66 | 1.0 | 1.0 | 0.00 | 0.00 | 0.00 | 99 | 1013.4 |
| 20260905104427 | 71 | 44 | 0.0 | 1.0 | 0.00 | 0.00 | 0.00 | 99 | 1013.5 |
| 20260905103922 | 71 | 85 | 1.0 | 2.0 | 0.00 | 0.00 | 0.00 | 99 | 1013.3 |
| 20260905103418 | 71 | 28 | 0.0 | 1.0 | 0.00 | 0.00 | 0.00 | 99 | 1013.5 |
| 20260905102914 | 71 | 37 | 0.0 | 0.0 | 0.00 | 0.00 | 0.00 | 99 | 1013.5 |
| 20260905102409 | 71 | 34 | 0.0 | 0.0 | 0.00 | 0.00 | 0.00 | 99 | 1013.2 |
| 20260905101909 | 71 | 16 | 0.0 | 0.0 | 0.00 | 0.00 | 0.00 | 99 | 1013.3 |
| 20260905101407 | 71 | 37 | 0.0 | 0.0 | 0.00 | 0.00 | 0.00 | 99 | 1013.3 |
| 20260905100902 | 72 | 98 | 0.0 | 1.0 | 0.00 | 0.00 | 0.00 | 99 | 1013.3 |
| 20260905100358 | 72 | 49 | 0.0 | 0.0 | 0.00 | 0.00 | 0.00 | 99 | 1013.5 |
| 20260905095857 | 72 | 61 | 1.0 | 1.0 | 0.00 | 0.00 | 0.00 | 99 | 1013.4 |
| 20260905095353 | 72 | 326 | 2.0 | 3.0 | 0.00 | 0.00 | 0.00 | 99 | 1013.4 |
| 20260905094847 | 72 | 355 | 1.0 | 1.0 | 0.00 | 0.00 | 0.00 | 99 | 1013.4 |
| 20260905094343 | 72 | 347 | 0.0 | 1.0 | 0.00 | 0.00 | 0.00 | 99 | 1013.4 |
| 20260905093842 | 72 | 332 | 0.0 | 0.0 | 0.00 | 0.00 | 0.00 | 99 | 1013.2 |
| 20260905093337 | 72 | 8 | 0.0 | 1.0 | 0.00 | 0.00 | 0.00 | 99 | 1013.2 |
| 20260905092833 | 72 | 11 | 1.0 | 1.0 | 0.00 | 0.00 | 0.00 | 99 | 1013.3 |
| 20260905092333 | 72 | 319 | 0.0 | 0.0 | 0.00 | 0.00 | 0.00 | 99 | 1013.2 |
| 20260905091828 | 72 | 353 | 1.0 | 2.0 | 0.00 | 0.00 | 0.00 | 99 | 1013.2 |
| 20260905091328 | 72 | 342 | 0.0 | 0.0 | 0.00 | 0.00 | 0.00 | 99 | 1013.1 |
| 20260905090826 | 72 | 216 | 0.0 | 0.0 | 0.00 | 0.00 | 0.00 | 99 | 1013.4 |
| 20260905090322 | 72 | 221 | 0.0 | 0.0 | 0.00 | 0.00 | 0.00 | 99 | 1013.0 |
| 20260905085822 | 72 | 221 | 0.0 | 0.0 | 0.00 | 0.00 | 0.00 | 99 | 1012.9 |
| 20260905085316 | 72 | 221 | 0.0 | 0.0 | 0.00 | 0.00 | 0.00 | 99 | 1013.0 |
| 20260905084812 | 72 | 221 | 0.0 | 0.0 | 0.00 | 0.00 | 0.00 | 99 | 1012.6 |
| 20260905084311 | 72 | 221 | 0.0 | 0.0 | 0.00 | 0.00 | 0.00 | 99 | 1013.0 |
| 20260905083806 | 72 | 221 | 0.0 | 0.0 | 0.00 | 0.00 | 0.00 | 99 | 1012.9 |
| 20260905083302 | 72 | 221 | 0.0 | 0.0 | 0.00 | 0.00 | 0.00 | 99 | 1012.9 |
| 20260905082757 | 72 | 221 | 0.0 | 0.0 | 0.00 | 0.00 | 0.00 | 99 | 1012.6 |
| 20260905082253 | 72 | 221 | 0.0 | 0.0 | 0.00 | 0.00 | 0.00 | 99 | 1012.5 |
| 20260905081748 | 72 | 235 | 0.0 | 0.0 | 0.00 | 0.00 | 0.00 | 99 | 1012.6 |
| 20260905081243 | 73 | 275 | 0.0 | 0.0 | 0.00 | 0.00 | 0.00 | 99 | 1012.6 |
| 20260905080743 | 73 | 275 | 0.0 | 0.0 | 0.00 | 0.00 | 0.00 | 99 | 1013.0 |
| 20260905080242 | 73 | 275 | 0.0 | 0.0 | 0.00 | 0.00 | 0.00 | 99 | 1012.9 |
| 20260905075741 | 73 | 275 | 0.0 | 0.0 | 0.00 | 0.00 | 0.00 | 99 | 1012.9 |
| 20260905075241 | 73 | 280 | 0.0 | 0.0 | 0.00 | 0.00 | 0.00 | 99 | 1013.0 |
| 20260905074739 | 73 | 280 | 0.0 | 0.0 | 0.00 | 0.00 | 0.00 | 99 | 1013.0 |
| 20260905074236 | 73 | 343 | 0.0 | 0.0 | 0.00 | 0.00 | 0.00 | 99 | 1013.0 |
| 20260905073731 | 73 | 289 | 0.0 | 0.0 | 0.00 | 0.00 | 0.00 | 99 | 1012.9 |
| 20260905073226 | 73 | 288 | 0.0 | 0.0 | 0.00 | 0.00 | 0.00 | 99 | 1012.9 |
| 20260905072726 | 73 | 288 | 0.0 | 0.0 | 0.00 | 0.00 | 0.00 | 99 | 1013.1 |
| 20260905072221 | 73 | 288 | 0.0 | 0.0 | 0.00 | 0.00 | 0.00 | 99 | 1012.9 |
| 20260905071718 | 73 | 288 | 0.0 | 0.0 | 0.00 | 0.00 | 0.00 | 99 | 1013.0 |
| 20260905071214 | 73 | 288 | 0.0 | 0.0 | 0.00 | 0.00 | 0.00 | 99 | 1013.3 |
| 20260905070708 | 73 | 289 | 0.0 | 0.0 | 0.00 | 0.00 | 0.00 | 99 | 1013.3 |
| 20260905070204 | 73 | 289 | 0.0 | 0.0 | 0.00 | 0.00 | 0.00 | 99 | 1013.2 |
| 20260905065703 | 73 | 334 | 0.0 | 0.0 | 0.00 | 0.00 | 0.00 | 99 | 1013.2 |
| 20260905065157 | 73 | 277 | 0.0 | 0.0 | 0.00 | 0.00 | 0.00 | 99 | 1013.1 |
| 20260905064653 | 73 | 277 | 0.0 | 0.0 | 0.00 | 0.00 | 0.00 | 99 | 1013.1 |
| 20260905064148 | 73 | 277 | 0.0 | 0.0 | 0.00 | 0.00 | 0.00 | 99 | 1013.2 |
| 20260905063646 | 73 | 277 | 0.0 | 0.0 | 0.00 | 0.00 | 0.00 | 99 | 1013.2 |
| 20260905063143 | 73 | 277 | 0.0 | 0.0 | 0.00 | 0.00 | 0.00 | 99 | 1013.3 |
| 20260905062639 | 73 | 277 | 0.0 | 0.0 | 0.00 | 0.00 | 0.00 | 99 | 1013.5 |
| 20260905062138 | 73 | 309 | 0.0 | 0.0 | 0.00 | 0.00 | 0.00 | 99 | 1013.4 |
| 20260905061633 | 73 | 309 | 0.0 | 0.0 | 0.00 | 0.00 | 0.00 | 99 | 1013.4 |
| 20260905061132 | 73 | 310 | 0.0 | 1.0 | 0.00 | 0.00 | 0.00 | 99 | 1013.6 |
| 20260905060628 | 73 | 292 | 0.0 | 0.0 | 0.00 | 0.00 | 0.00 | 99 | 1013.3 |
| 20260905060124 | 73 | 292 | 0.0 | 0.0 | 0.00 | 0.00 | 0.00 | 99 | 1013.4 |
| 20260905055622 | 73 | 291 | 0.0 | 0.0 | 0.00 | 0.00 | 0.00 | 99 | 1013.5 |
| 20260905055118 | 73 | 292 | 0.0 | 0.0 | 0.00 | 0.00 | 0.00 | 99 | 1013.3 |
| 20260905054614 | 73 | 291 | 0.0 | 0.0 | 0.00 | 0.00 | 0.00 | 99 | 1013.6 |
| 20260905054109 | 73 | 292 | 0.0 | 0.0 | 0.00 | 0.00 | 0.00 | 99 | 1013.5 |
| 20260905053608 | 73 | 291 | 0.0 | 0.0 | 0.00 | 0.00 | 0.00 | 99 | 1013.7 |
| 20260905053104 | 73 | 292 | 0.0 | 0.0 | 0.00 | 0.00 | 0.00 | 99 | 1013.8 |
| 20260905052603 | 73 | 292 | 0.0 | 0.0 | 0.00 | 0.00 | 0.00 | 99 | 1013.6 |
| 20260905052058 | 73 | 292 | 0.0 | 0.0 | 0.00 | 0.00 | 0.00 | 99 | 1013.8 |
| 20260905051553 | 73 | 292 | 0.0 | 0.0 | 0.00 | 0.00 | 0.00 | 99 | 1013.6 |
| 20260905051050 | 74 | 355 | 0.0 | 1.0 | 0.00 | 0.00 | 0.00 | 99 | 1013.6 |
| 20260905050546 | 74 | 4 | 0.0 | 0.0 | 0.00 | 0.00 | 0.00 | 99 | 1013.5 |
| 20260905050043 | 74 | 4 | 0.0 | 0.0 | 0.00 | 0.32 | 0.32 | 99 | 1013.5 |
| 20260905045537 | 74 | 4 | 0.0 | 0.0 | 0.00 | 0.32 | 0.32 | 99 | 1013.5 |
| 20260905045032 | 74 | 5 | 0.0 | 0.0 | 0.00 | 0.32 | 0.32 | 99 | 1013.5 |
| 20260905044532 | 74 | 5 | 0.0 | 0.0 | 0.00 | 0.32 | 0.32 | 99 | 1013.4 |
| 20260905044027 | 74 | 5 | 0.0 | 0.0 | 0.00 | 0.32 | 0.32 | 99 | 1013.3 |
| 20260905043526 | 74 | 6 | 0.0 | 0.0 | 0.00 | 0.32 | 0.32 | 99 | 1013.5 |
| 20260905043022 | 74 | 6 | 0.0 | 0.0 | 0.00 | 0.32 | 0.32 | 99 | 1013.9 |
| 20260905042520 | 74 | 8 | 0.0 | 0.0 | 0.00 | 0.32 | 0.32 | 99 | 1013.6 |
| 20260905042016 | 74 | 98 | 0.0 | 0.0 | 0.00 | 0.32 | 0.32 | 99 | 1013.7 |
| 20260905041511 | 74 | 59 | 0.0 | 0.0 | 0.00 | 0.32 | 0.32 | 99 | 1013.6 |
| 20260905041007 | 74 | 70 | 0.0 | 0.0 | 0.00 | 0.32 | 0.32 | 99 | 1013.8 |
| 20260905040506 | 74 | 20 | 0.0 | 0.0 | 0.00 | 0.32 | 0.32 | 99 | 1013.3 |
| 20260905040005 | 74 | 358 | 0.0 | 0.0 | 0.00 | 0.32 | 0.32 | 99 | 1013.5 |
| 20260905035500 | 74 | 28 | 0.0 | 0.0 | 0.00 | 0.32 | 0.32 | 99 | 1013.5 |
| 20260905034957 | 74 | 85 | 0.0 | 0.0 | 0.00 | 0.32 | 0.32 | 99 | 1013.5 |
| 20260905034458 | 74 | 79 | 1.0 | 2.0 | 0.00 | 0.32 | 0.32 | 99 | 1013.6 |
| 20260905033956 | 74 | 32 | 0.0 | 0.0 | 0.00 | 0.32 | 0.32 | 99 | 1013.7 |
| 20260905033451 | 75 | 36 | 0.0 | 0.0 | 0.00 | 0.32 | 0.32 | 99 | 1013.7 |
| 20260905032946 | 75 | 1 | 0.0 | 1.0 | 0.00 | 0.32 | 0.32 | 99 | 1013.6 |
| 20260905032441 | 75 | 55 | 0.0 | 1.0 | 0.00 | 0.32 | 0.32 | 99 | 1013.8 |
| 20260905031936 | 75 | 84 | 0.0 | 0.0 | 0.00 | 0.32 | 0.32 | 99 | 1013.7 |
| 20260905031432 | 75 | 117 | 2.0 | 2.0 | 0.00 | 0.32 | 0.32 | 99 | 1014.0 |
| 20260905030927 | 75 | 153 | 1.0 | 1.0 | 0.07 | 0.32 | 0.32 | 98 | 1014.3 |
| 20260905030423 | 75 | 82 | 0.0 | 0.0 | 0.38 | 0.32 | 0.32 | 98 | 1013.8 |
| 20260905025921 | 76 | 178 | 1.0 | 1.0 | 0.73 | 0.31 | 0.31 | 97 | 1014.1 |
| 20260905025417 | 76 | 92 | 0.0 | 0.0 | 0.73 | 0.27 | 0.27 | 96 | 1014.1 |
| 20260905024914 | 77 | 280 | 2.0 | 2.0 | 0.35 | 0.19 | 0.19 | 95 | 1014.9 |
| 20260905024408 | 78 | 269 | 1.0 | 1.0 | 0.12 | 0.15 | 0.15 | 92 | 1014.4 |
| 20260905023904 | 78 | 21 | 1.0 | 1.0 | 0.00 | 0.13 | 0.13 | 91 | 1014.4 |
| 20260905023359 | 78 | 94 | 1.0 | 1.0 | 0.00 | 0.13 | 0.13 | 91 | 1014.2 |
| 20260905022858 | 78 | 77 | 1.0 | 1.0 | 0.00 | 0.13 | 0.13 | 91 | 1013.9 |
| 20260905022354 | 78 | 71 | 2.0 | 2.0 | 0.00 | 0.13 | 0.13 | 90 | 1014.0 |
| 20260905021854 | 78 | 81 | 1.0 | 2.0 | 0.00 | 0.13 | 0.13 | 90 | 1014.2 |
| 20260905021348 | 79 | 66 | 1.0 | 2.0 | 0.00 | 0.13 | 0.13 | 90 | 1013.8 |
| 20260905020844 | 79 | 120 | 0.0 | 0.0 | 0.00 | 0.13 | 0.13 | 90 | 1013.8 |
| 20260905020338 | 79 | 105 | 0.0 | 0.0 | 0.00 | 0.13 | 0.13 | 89 | 1013.9 |
| 20260905015838 | 79 | 68 | 1.0 | 1.0 | 0.00 | 0.13 | 0.13 | 89 | 1013.8 |
| 20260905015337 | 80 | 88 | 2.0 | 2.0 | 0.00 | 0.13 | 0.13 | 88 | 1013.7 |
| 20260905014831 | 80 | 357 | 1.0 | 1.0 | 0.00 | 0.13 | 0.13 | 89 | 1013.9 |
| 20260905014326 | 81 | 69 | 0.0 | 1.0 | 0.00 | 0.13 | 0.13 | 89 | 1013.9 |
| 20260905013821 | 81 | 65 | 0.0 | 1.0 | 0.00 | 0.13 | 0.13 | 89 | 1014.0 |
| 20260905013318 | 82 | 154 | 0.0 | 0.0 | 0.00 | 0.13 | 0.13 | 89 | 1013.7 |
| 20260905012813 | 82 | 59 | 1.0 | 2.0 | 0.00 | 0.13 | 0.13 | 90 | 1013.5 |
| 20260905012308 | 82 | 229 | 0.0 | 0.0 | 0.00 | 0.13 | 0.13 | 90 | 1013.5 |
| 20260905011805 | 82 | 229 | 0.0 | 0.0 | 0.00 | 0.13 | 0.13 | 90 | 1013.5 |
| 20260905011301 | 82 | 347 | 0.0 | 1.0 | 0.00 | 0.13 | 0.13 | 90 | 1013.4 |
| 20260905010800 | 82 | 10 | 0.0 | 0.0 | 0.00 | 0.13 | 0.13 | 89 | 1013.2 |
| 20260905010255 | 82 | 21 | 0.0 | 0.0 | 0.00 | 0.13 | 0.13 | 89 | 1013.0 |
| 20260905005752 | 82 | 22 | 0.0 | 1.0 | 0.00 | 0.13 | 0.13 | 88 | 1012.9 |
| 20260905005253 | 82 | 21 | 0.0 | 1.0 | 0.00 | 0.13 | 0.13 | 89 | 1012.8 |
| 20260905004752 | 82 | 325 | 0.0 | 1.0 | 0.00 | 0.13 | 0.13 | 90 | 1012.5 |
| 20260905004247 | 82 | 229 | 1.0 | 1.0 | 0.00 | 0.13 | 0.13 | 89 | 1012.5 |
| 20260905003742 | 82 | 178 | 0.0 | 0.0 | 0.00 | 0.13 | 0.13 | 89 | 1012.4 |
| 20260905003238 | 83 | 244 | 0.0 | 0.0 | 0.00 | 0.13 | 0.13 | 87 | 1012.4 |
| 20260905002734 | 84 | 245 | 0.0 | 0.0 | 0.00 | 0.13 | 0.13 | 86 | 1012.8 |
| 20260905002233 | 84 | 277 | 0.0 | 0.0 | 0.00 | 0.13 | 0.13 | 85 | 1012.3 |
| 20260905001729 | 84 | 277 | 0.0 | 0.0 | 0.00 | 0.13 | 0.13 | 85 | 1012.4 |
| 20260905001227 | 84 | 270 | 0.0 | 0.0 | 0.00 | 0.13 | 0.13 | 84 | 1012.5 |
| 20260905000723 | 84 | 275 | 0.0 | 1.0 | 0.00 | 0.13 | 0.13 | 84 | 1012.4 |
| 20260905000219 | 84 | 239 | 1.0 | 1.0 | 0.00 | 0.13 | 0.13 | 83 | 1012.4 |
| 20260904235714 | 85 | 206 | 0.0 | 0.0 | 0.00 | 0.13 | 0.13 | 83 | 1012.4 |
| 20260904235209 | 85 | 221 | 0.0 | 0.0 | 0.00 | 0.13 | 0.13 | 82 | 1012.0 |
| 20260904234703 | 85 | 178 | 0.0 | 0.0 | 0.00 | 0.13 | 0.13 | 82 | 1012.2 |
| 20260904234159 | 85 | 257 | 1.0 | 2.0 | 0.00 | 0.13 | 0.13 | 82 | 1011.9 |
| 20260904233654 | 86 | 230 | 0.0 | 0.0 | 0.00 | 0.13 | 0.13 | 81 | 1011.9 |
| 20260904233150 | 86 | 216 | 0.0 | 0.0 | 0.00 | 0.13 | 0.13 | 80 | 1012.0 |
| 20260904232647 | 86 | 216 | 0.0 | 0.0 | 0.00 | 0.13 | 0.13 | 79 | 1012.1 |
| 20260904232143 | 86 | 195 | 0.0 | 0.0 | 0.00 | 0.13 | 0.13 | 78 | 1011.9 |
| 20260904231637 | 87 | 209 | 0.0 | 0.0 | 0.00 | 0.13 | 0.13 | 77 | 1012.3 |
| 20260904231133 | 87 | 222 | 1.0 | 1.0 | 0.00 | 0.13 | 0.13 | 76 | 1012.2 |
| 20260904230632 | 88 | 244 | 1.0 | 1.0 | 0.00 | 0.13 | 0.13 | 75 | 1011.9 |
| 20260904230128 | 88 | 189 | 0.0 | 0.0 | 0.00 | 0.13 | 0.13 | 76 | 1012.1 |
| 20260904225625 | 88 | 255 | 2.0 | 2.0 | 0.00 | 0.13 | 0.13 | 76 | 1012.1 |
| 20260904225120 | 88 | 221 | 1.0 | 1.0 | 0.00 | 0.13 | 0.13 | 76 | 1012.3 |
| 20260904224615 | 88 | 193 | 1.0 | 2.0 | 0.00 | 0.13 | 0.13 | 75 | 1012.2 |
| 20260904224110 | 89 | 226 | 1.0 | 2.0 | 0.00 | 0.13 | 0.13 | 73 | 1012.2 |
| 20260904223609 | 88 | 223 | 0.0 | 0.0 | 0.00 | 0.13 | 0.13 | 74 | 1012.4 |
| 20260904223105 | 90 | 246 | 1.0 | 1.0 | 0.00 | 0.13 | 0.13 | 71 | 1012.5 |
| 20260904222600 | 90 | 199 | 1.0 | 1.0 | 0.00 | 0.13 | 0.13 | 70 | 1012.1 |
| 20260904222056 | 91 | 247 | 1.0 | 1.0 | 0.00 | 0.13 | 0.13 | 70 | 1012.3 |
| 20260904221556 | 91 | 261 | 3.0 | 3.0 | 0.00 | 0.13 | 0.13 | 68 | 1012.3 |
| 20260904221055 | 91 | 262 | 1.0 | 2.0 | 0.00 | 0.13 | 0.13 | 68 | 1012.5 |
| 20260904220550 | 91 | 283 | 2.0 | 2.0 | 0.00 | 0.13 | 0.13 | 67 | 1012.5 |
| 20260904220045 | 91 | 274 | 1.0 | 2.0 | 0.00 | 0.13 | 0.13 | 68 | 1012.2 |
| 20260904215540 | 92 | 256 | 1.0 | 1.0 | 0.00 | 0.13 | 0.13 | 68 | 1012.2 |
| 20260904215036 | 92 | 224 | 1.0 | 1.0 | 0.00 | 0.13 | 0.13 | 68 | 1012.3 |
| 20260904214531 | 92 | 222 | 1.0 | 1.0 | 0.00 | 0.13 | 0.13 | 68 | 1012.4 |
| 20260904214027 | 92 | 227 | 2.0 | 3.0 | 0.00 | 0.13 | 0.13 | 66 | 1012.3 |
| 20260904213524 | 92 | 212 | 4.0 | 6.0 | 0.00 | 0.13 | 0.13 | 67 | 1012.2 |
| 20260904213022 | 92 | 164 | 1.0 | 1.0 | 0.00 | 0.13 | 0.13 | 66 | 1012.3 |
| 20260904212521 | 92 | 264 | 2.0 | 2.0 | 0.00 | 0.13 | 0.13 | 67 | 1012.3 |
| 20260904212016 | 92 | 154 | 1.0 | 1.0 | 0.00 | 0.13 | 0.13 | 66 | 1012.2 |
| 20260904211516 | 91 | 223 | 1.0 | 2.0 | 0.00 | 0.13 | 0.13 | 67 | 1012.2 |
| 20260904211012 | 91 | 295 | 2.0 | 5.0 | 0.00 | 0.13 | 0.13 | 67 | 1011.9 |
| 20260904210511 | 91 | 230 | 1.0 | 3.0 | 0.00 | 0.13 | 0.13 | 68 | 1012.0 |
| 20260904210007 | 91 | 250 | 1.0 | 1.0 | 0.00 | 0.13 | 0.13 | 68 | 1012.2 |
| 20260904205502 | 92 | 227 | 1.0 | 1.0 | 0.00 | 0.13 | 0.13 | 66 | 1012.3 |
| 20260904204959 | 92 | 273 | 3.0 | 5.0 | 0.00 | 0.13 | 0.13 | 67 | 1011.9 |
| 20260904204454 | 91 | 192 | 1.0 | 2.0 | 0.00 | 0.13 | 0.13 | 68 | 1011.9 |
| 20260904203950 | 91 | 178 | 4.0 | 6.0 | 0.00 | 0.13 | 0.13 | 66 | 1012.2 |
| 20260904203446 | 91 | 130 | 5.0 | 7.0 | 0.00 | 0.13 | 0.13 | 66 | 1012.3 |
| 20260904202942 | 90 | 195 | 1.0 | 2.0 | 0.00 | 0.13 | 0.13 | 68 | 1012.2 |
| 20260904202438 | 90 | 233 | 3.0 | 3.0 | 0.00 | 0.13 | 0.13 | 67 | 1012.4 |
| 20260904201934 | 91 | 232 | 4.0 | 5.0 | 0.00 | 0.13 | 0.13 | 66 | 1012.3 |
| 20260904201429 | 91 | 122 | 1.0 | 2.0 | 0.00 | 0.13 | 0.13 | 67 | 1012.4 |
| 20260904200924 | 90 | 135 | 5.0 | 8.0 | 0.00 | 0.13 | 0.13 | 67 | 1012.4 |
| 20260904200422 | 90 | 228 | 3.0 | 3.0 | 0.00 | 0.13 | 0.13 | 67 | 1012.6 |
| 20260904195918 | 90 | 261 | 3.0 | 3.0 | 0.00 | 0.13 | 0.13 | 67 | 1012.9 |
| 20260904195415 | 90 | 241 | 5.0 | 8.0 | 0.00 | 0.13 | 0.13 | 69 | 1012.8 |
| 20260904194910 | 89 | 200 | 5.0 | 10.0 | 0.00 | 0.13 | 0.13 | 66 | 1012.8 |
| 20260904194410 | 89 | 246 | 4.0 | 6.0 | 0.00 | 0.13 | 0.13 | 68 | 1013.2 |
| 20260904193905 | 89 | 246 | 3.0 | 3.0 | 0.00 | 0.13 | 0.13 | 70 | 1013.2 |
| 20260904193400 | 89 | 244 | 2.0 | 2.0 | 0.00 | 0.13 | 0.13 | 72 | 1013.3 |
| 20260904192855 | 88 | 217 | 3.0 | 3.0 | 0.00 | 0.13 | 0.13 | 71 | 1013.3 |
| 20260904192351 | 87 | 225 | 4.0 | 6.0 | 0.00 | 0.13 | 0.13 | 70 | 1013.3 |
| 20260904191847 | 87 | 65 | 4.0 | 6.0 | 0.00 | 0.13 | 0.13 | 71 | 1013.2 |
| 20260904191344 | 87 | 176 | 4.0 | 6.0 | 0.00 | 0.13 | 0.13 | 72 | 1013.4 |
| 20260904190840 | 86 | 231 | 1.0 | 1.0 | 0.00 | 0.13 | 0.13 | 74 | 1013.8 |
| 20260904190335 | 86 | 124 | 3.0 | 5.0 | 0.00 | 0.13 | 0.13 | 72 | 1013.9 |
| 20260904185832 | 85 | 115 | 2.0 | 5.0 | 0.00 | 0.13 | 0.13 | 72 | 1013.9 |